Location: Birkenwerder
(52.6919°N, 13.2774°E)
Time: 12:32:09
(UTC+00:00)

NPP - Pass Details

Date: 07 June 2020
Orbit: 826 x 828 km, 98.7° (Epoch: 11 July)

Event Time Altitude Azimuth Distance (km) Brightness Sun altitude
Rises 01:09:24 0° 15° (NNE) 3,382 8.7 -9.9°
Reaches altitude 10° 01:11:46 10° 16° (NNE) 2,444 7.6 -9.7°
Maximum altitude 01:17:12 89° 109° (ESE) 835 3.7 -9.3°
Enters shadow 01:22:35 10° 197° (SSW) 2,421 5.5 -8.9°
